カタログに戻る

OPTUS C1

運用中通信GEO
NORAD 27831·PAYLOAD·🇦🇺 Australia

打ち上げ Jun 11, 2003 から Guiana Space Centre

Loading…

TLE

最新Source: Space-Track

元期: Sep 14, 2026, 15:06 UTC

1 27831U 03028B   26257.62975292 -.00000157  00000-0  00000-0 0  9992
2 27831   7.1080  68.2887 0005438 101.8473 205.9386  1.00273072 53959

AllMySatでOPTUS C1をリアルタイム追跡

Download on the App Store